START_TIME,STEP,MOV.,M6,t_acc.,M7,t_acc.,M19,t_acc.,H36,t_acc.
1981-08-30 09:00:27.650 ,6,1,0.,12.0,0.,12.0,0.,12.0,0.,12.0
1981-08-30 09:00:39.650 ,6,1,0.,12.0,0.,12.0,0.,12.0,0.,12.0
1981-08-30 09:00:51.650 ,7,1,0.,12.0,0.,12.0,0.,12.0,0.,12.0
1981-08-30 09:01:03.650 ,7,1,0.,12.0,0.,12.0,0.,12.0,0.,12.0
1981-08-30 09:01:15.650 ,7,1,0.,12.0,0.,12.0,0.,12.0,0.,12.0
1981-08-30 09:01:27.650 ,7,1,0.,12.0,0.,12.0,0.,12.0,0.,12.0
1981-08-30 09:01:39.650 ,6,1,0.,12.0,0.,12.0,0.,12.0,0.,12.0
1981-08-30 09:01:51.650 ,6,1,0.,12.0,0.,12.0,0.,12.0,0.,12.0
1981-08-30 09:02:03.650 ,5,1,0.,12.0,0.,12.0,0.,12.0,0.,12.0
1981-08-30 09:02:15.650 ,5,1,0.,12.0,0.,12.0,0.,12.0,0.,12.0
1981-08-30 09:02:27.650 ,4,1,0.,12.0,0.,12.0,0.,12.0,0.,12.0
1981-08-30 09:02:39.650 ,4,1,0.,12.0,0.,12.0,0.,12.0,0.,12.0
1981-08-30 09:02:51.650 ,3,1,0.,12.0,0.,12.0,0.,12.0,0.,12.0
1981-08-30 09:03:03.650 ,3,1,0.,12.0,0.,12.0,0.,12.0,0.,12.0
1981-08-30 09:03:15.650 ,2,1,0.,12.0,0.,12.0,0.,12.0,0.,12.0
1981-08-30 09:03:27.650 ,2,1,0.,12.0,0.,12.0,0.,12.0,0.,12.0
1981-08-30 09:03:39.650 ,1,1,0.,12.0,0.,12.0,0.,12.0,0.,12.0
1981-08-30 09:03:51.650 ,1,1,0.,12.0,0.,12.0,0.,12.0,0.,12.0
1981-08-30 09:04:03.650 ,0,1,0.,12.0,0.,12.0,0.,12.0,0.,12.0
1981-08-30 09:04:15.650 ,0,1,0.,12.0,0.,12.0,0.,12.0,0.,12.0
1981-08-30 09:04:27.650 ,0,1,0.,12.0,0.,12.0,0.,12.0,0.,12.0
1981-08-30 09:04:39.650 ,0,1,0.,12.0,0.,12.0,0.,12.0,0.,12.0
1981-08-30 09:04:51.650 ,1,1,0.,12.0,0.,12.0,0.,12.0,0.,12.0
1981-08-30 09:05:03.650 ,1,1,0.,12.0,0.,12.0,0.,12.0,0.,12.0
1981-08-30 09:05:15.650 ,2,1,0.,12.0,0.,12.0,0.,12.0,0.,12.0
1981-08-30 09:05:27.650 ,2,1,0.,12.0,0.,12.0,0.,12.0,0.,12.0
1981-08-30 09:05:39.650 ,3,1,0.,12.0,0.,12.0,0.,12.0,0.,12.0
1981-08-30 09:05:51.650 ,3,1,0.,12.0,0.,12.0,0.,12.0,0.,12.0
1981-08-30 09:06:03.650 ,3,0,0.,12.0,0.,12.0,0.,12.0,0.,12.0
1981-08-30 09:06:15.650 ,3,0,0.,12.0,0.,12.0,0.,12.0,0.,12.0
1981-08-30 09:06:27.650 ,4,1,0.,12.0,0.,12.0,0.,12.0,0.,12.0
1981-08-30 09:06:39.650 ,4,1,0.,12.0,0.,12.0,0.,12.0,0.,12.0
1981-08-30 09:06:51.650 ,4,0,0.,12.0,0.,12.0,0.,12.0,0.,12.0
1981-08-30 09:07:03.650 ,4,0,0.,12.0,0.,12.0,0.,12.0,0.,12.0
1981-08-30 09:07:15.650 ,5,1,0.,12.0,0.,12.0,0.,12.0,0.,12.0
1981-08-30 09:07:27.650 ,5,1,0.,12.0,0.,12.0,0.,12.0,0.,12.0
1981-08-30 09:07:39.650 ,5,0,0.,12.0,0.,12.0,0.,12.0,0.,12.0
1981-08-30 09:07:51.650 ,5,0,0.,12.0,0.,12.0,0.,12.0,0.,12.0
1981-08-30 09:08:03.650 ,6,1,0.,12.0,0.,12.0,0.,12.0,0.,12.0
1981-08-30 09:08:15.650 ,6,1,0.,12.0,0.,12.0,0.,12.0,0.,12.0
1981-08-30 09:08:27.650 ,6,0,0.,12.0,0.,12.0,0.,12.0,0.,12.0
1981-08-30 09:08:39.650 ,6,0,0.,12.0,0.,12.0,0.,12.0,0.,12.0
1981-08-30 09:08:51.650 ,7,1,0.,12.0,0.,12.0,0.,12.0,0.,12.0
1981-08-30 09:09:03.650 ,7,1,0.,12.0,0.,12.0,0.,12.0,0.,12.0
1981-08-30 09:09:15.650 ,7,0,0.,12.0,0.,12.0,0.,12.0,0.,12.0
1981-08-30 09:09:27.650 ,7,0,0.,12.0,0.,12.0,0.,12.0,0.,12.0
1981-08-30 09:09:39.650 ,7,1,0.,12.0,0.,12.0,0.,12.0,0.,12.0
1981-08-30 09:09:51.650 ,7,1,0.,12.0,0.,12.0,0.,12.0,0.,12.0
1981-08-30 09:10:03.650 ,7,0,0.,12.0,0.,12.0,0.,12.0,0.,12.0
1981-08-30 09:10:15.650 ,7,0,0.,12.0,0.,12.0,0.,12.0,0.,12.0
1981-08-30 09:10:27.650 ,6,1,0.,12.0,0.,12.0,0.,12.0,0.,12.0
1981-08-30 09:10:39.650 ,6,1,0.,12.0,0.,12.0,0.,12.0,0.,12.0
1981-08-30 09:10:51.650 ,6,0,0.,12.0,0.,12.0,0.,12.0,0.,12.0
1981-08-30 09:11:03.650 ,6,0,0.,12.0,0.,12.0,0.,12.0,0.,12.0
1981-08-30 09:11:15.650 ,5,1,0.,12.0,0.,12.0,0.,12.0,0.,12.0
1981-08-30 09:11:27.650 ,5,1,0.,12.0,0.,12.0,0.,12.0,0.,12.0
1981-08-30 09:11:39.650 ,5,0,0.,12.0,0.,12.0,0.,12.0,0.,12.0
1981-08-30 09:11:51.650 ,5,0,0.,12.0,0.,12.0,0.,12.0,0.,12.0
1981-08-30 09:12:03.650 ,4,1,0.,12.0,0.,12.0,0.,12.0,0.,12.0
1981-08-30 09:12:15.650 ,4,1,0.,12.0,0.,12.0,0.,12.0,0.,12.0
1981-08-30 09:12:27.650 ,4,0,0.,12.0,0.,12.0,0.,12.0,0.,12.0
1981-08-30 09:12:39.650 ,4,0,0.,12.0,0.,12.0,0.,12.0,0.,12.0
1981-08-30 09:12:51.650 ,3,1,0.,12.0,0.,12.0,0.,12.0,0.,12.0
1981-08-30 09:13:03.650 ,3,1,0.,12.0,0.,12.0,0.,12.0,0.,12.0
1981-08-30 09:13:15.650 ,3,0,0.,12.0,0.,12.0,0.,12.0,0.,12.0
1981-08-30 09:13:27.650 ,3,0,0.,12.0,0.,12.0,0.,12.0,0.,12.0
1981-08-30 09:13:39.650 ,2,1,0.,12.0,0.,12.0,0.,12.0,0.,12.0
1981-08-30 09:13:51.650 ,2,1,0.,12.0,0.,12.0,0.,12.0,0.,12.0
1981-08-30 09:14:03.650 ,2,0,0.,12.0,0.,12.0,0.,12.0,0.,12.0
1981-08-30 09:14:15.650 ,2,0,0.,12.0,0.,12.0,0.,12.0,0.,12.0
1981-08-30 09:14:27.650 ,1,1,0.,12.0,0.,12.0,0.,12.0,0.,12.0
1981-08-30 09:14:39.650 ,1,1,0.,12.0,0.,12.0,0.,12.0,0.,12.0
1981-08-30 09:14:51.650 ,1,0,0.,12.0,0.,12.0,0.,12.0,0.,12.0
1981-08-30 09:15:03.650 ,1,0,0.,12.0,0.,12.0,0.,12.0,0.,12.0
1981-08-30 09:15:15.650 ,0,1,0.,12.0,0.,12.0,0.,12.0,0.,12.0
1981-08-30 09:15:27.650 ,0,1,0.,12.0,0.,12.0,0.,12.0,0.,12.0
1981-08-30 09:15:39.650 ,0,0,0.,12.0,0.,12.0,0.,12.0,0.,12.0
1981-08-30 09:15:51.650 ,0,0,0.,12.0,0.,12.0,0.,12.0,0.,12.0
1981-08-30 09:16:03.650 ,0,1,0.,12.0,0.,12.0,0.,12.0,0.,12.0
1981-08-30 09:16:15.650 ,0,1,0.,12.0,0.,12.0,0.,12.0,0.,12.0
1981-08-30 09:16:27.650 ,0,0,0.,12.0,0.,12.0,0.,12.0,0.,12.0
1981-08-30 09:16:39.650 ,0,0,0.,12.0,0.,12.0,0.,12.0,0.,12.0
1981-08-30 09:16:51.640 ,1,1,0.,12.0,0.,12.0,0.,12.0,0.,12.0
1981-08-30 09:17:03.650 ,1,1,0.,12.0,0.,12.0,0.,12.0,0.,12.0
1981-08-30 09:17:15.650 ,1,0,0.,12.0,0.,12.0,0.,12.0,0.,12.0
1981-08-30 09:17:27.650 ,1,0,0.,12.0,0.,12.0,0.,12.0,0.,12.0
1981-08-30 09:17:39.650 ,2,1,0.,12.0,0.,12.0,0.,12.0,0.,12.0
1981-08-30 09:17:51.650 ,2,1,0.,12.0,0.,12.0,0.,12.0,0.,12.0
1981-08-30 09:18:03.650 ,2,0,0.,12.0,0.,12.0,0.,12.0,0.,12.0
1981-08-30 09:18:15.650 ,2,0,0.,12.0,0.,12.0,0.,12.0,0.,12.0
1981-08-30 09:18:27.650 ,3,1,0.,12.0,0.,12.0,0.,12.0,0.,12.0
1981-08-30 09:18:39.650 ,3,1,0.,12.0,0.,12.0,0.,12.0,0.,12.0
1981-08-30 09:18:51.650 ,4,1,0.,12.0,0.,12.0,0.,12.0,0.,12.0
1981-08-30 09:19:03.650 ,4,1,0.,12.0,0.,12.0,0.,12.0,0.,12.0
1981-08-30 09:19:15.650 ,5,1,0.,12.0,0.,12.0,0.,12.0,0.,12.0
1981-08-30 09:19:27.650 ,5,1,0.,12.0,0.,12.0,0.,12.0,0.,12.0
1981-08-30 09:19:39.650 ,6,1,0.,12.0,0.,12.0,0.,12.0,0.,12.0
1981-08-30 09:19:51.650 ,6,1,0.,12.0,0.,12.0,0.,12.0,0.,12.0
1981-08-30 09:20:03.650 ,7,1,0.,12.0,0.,12.0,0.,12.0,0.,12.0
1981-08-30 09:20:15.650 ,7,1,0.,12.0,0.,12.0,0.,12.0,0.,12.0
1981-08-30 09:20:27.650 ,7,1,0.,12.0,0.,12.0,0.,12.0,0.,12.0
1981-08-30 09:20:39.650 ,7,1,0.,12.0,0.,12.0,0.,12.0,0.,12.0
1981-08-30 09:20:51.650 ,6,1,0.,12.0,0.,12.0,0.,12.0,0.,12.0
1981-08-30 09:21:03.650 ,6,1,0.,12.0,0.,12.0,0.,12.0,0.,12.0
1981-08-30 09:21:15.650 ,5,1,0.,12.0,0.,12.0,0.,12.0,0.,12.0
1981-08-30 09:21:27.650 ,5,1,0.,12.0,0.,12.0,0.,12.0,0.,12.0
1981-08-30 09:21:39.650 ,4,1,0.,12.0,0.,12.0,0.,12.0,0.,12.0
1981-08-30 09:21:51.650 ,4,1,0.,12.0,0.,12.0,0.,12.0,0.,12.0
1981-08-30 09:22:03.650 ,3,1,0.,12.0,0.,12.0,0.,12.0,0.,12.0
1981-08-30 09:22:15.650 ,3,1,0.,12.0,0.,12.0,0.,12.0,0.,12.0
1981-08-30 09:22:27.650 ,2,1,0.,12.0,0.,12.0,0.,12.0,0.,12.0
1981-08-30 09:22:39.650 ,2,1,0.,12.0,0.,12.0,0.,12.0,0.,12.0
1981-08-30 09:22:51.650 ,1,1,0.,12.0,0.,12.0,0.,12.0,0.,12.0
1981-08-30 09:23:03.650 ,1,1,0.,12.0,0.,12.0,0.,12.0,0.,12.0
1981-08-30 09:23:15.650 ,0,1,0.,12.0,0.,12.0,0.,12.0,0.,12.0
1981-08-30 09:23:27.650 ,0,1,0.,12.0,0.,12.0,0.,12.0,0.,12.0
1981-08-30 09:23:39.650 ,0,1,0.,12.0,0.,12.0,0.,12.0,0.,12.0
1981-08-30 09:23:51.650 ,0,1,0.,12.0,0.,12.0,0.,12.0,0.,12.0
1981-08-30 09:24:03.650 ,1,1,0.,12.0,0.,12.0,0.,12.0,0.,12.0
1981-08-30 09:24:15.650 ,1,1,0.,12.0,0.,12.0,0.,12.0,0.,12.0
1981-08-30 09:24:27.650 ,2,1,0.,12.0,0.,12.0,0.,12.0,0.,12.0
1981-08-30 09:24:39.650 ,2,1,0.,12.0,0.,12.0,0.,12.0,0.,12.0
1981-08-30 09:24:51.650 ,3,1,0.,12.0,0.,12.0,0.,12.0,0.,12.0
1981-08-30 09:25:03.650 ,3,1,0.,12.0,0.,12.0,0.,12.0,0.,12.0
1981-08-30 09:25:15.650 ,3,0,0.,12.0,0.,12.0,0.,12.0,0.,12.0
1981-08-30 09:25:27.650 ,3,0,0.,12.0,0.,12.0,0.,12.0,0.,12.0
1981-08-30 09:25:39.650 ,4,1,0.,12.0,0.,12.0,0.,12.0,0.,12.0
1981-08-30 09:25:51.650 ,4,1,0.,12.0,0.,12.0,0.,12.0,0.,12.0
1981-08-30 09:26:03.650 ,4,0,0.,12.0,0.,12.0,0.,12.0,0.,12.0
1981-08-30 09:26:15.650 ,4,0,0.,12.0,0.,12.0,0.,12.0,0.,12.0
1981-08-30 09:26:27.650 ,5,1,0.,12.0,0.,12.0,0.,12.0,0.,12.0
1981-08-30 09:26:39.650 ,5,1,0.,12.0,0.,12.0,0.,12.0,0.,12.0
1981-08-30 09:26:51.650 ,5,0,0.,12.0,0.,12.0,0.,12.0,0.,12.0
1981-08-30 09:27:03.650 ,5,0,0.,12.0,0.,12.0,0.,12.0,0.,12.0
1981-08-30 09:27:15.650 ,6,1,0.,12.0,0.,12.0,0.,12.0,0.,12.0
1981-08-30 09:27:27.650 ,6,1,0.,12.0,0.,12.0,0.,12.0,0.,12.0
1981-08-30 09:27:39.650 ,6,0,0.,12.0,0.,12.0,0.,12.0,0.,12.0
1981-08-30 09:27:51.650 ,6,0,0.,12.0,0.,12.0,0.,12.0,0.,12.0
1981-08-30 09:28:03.650 ,7,1,0.,12.0,0.,12.0,0.,12.0,0.,12.0
1981-08-30 09:28:15.650 ,7,1,0.,12.0,0.,12.0,0.,12.0,0.,12.0
1981-08-30 09:28:27.650 ,7,0,0.,12.0,0.,12.0,0.,12.0,0.,12.0
1981-08-30 09:28:39.650 ,7,0,0.,12.0,0.,12.0,0.,12.0,0.,12.0
1981-08-30 09:28:51.650 ,7,1,0.,12.0,0.,12.0,0.,12.0,0.,12.0
1981-08-30 09:29:03.650 ,7,1,0.,12.0,0.,12.0,0.,12.0,0.,12.0
1981-08-30 09:29:15.650 ,7,0,0.,12.0,0.,12.0,0.,12.0,0.,12.0
1981-08-30 09:29:27.650 ,7,0,0.,12.0,0.,12.0,0.,12.0,0.,12.0
1981-08-30 09:29:39.650 ,6,1,0.,12.0,0.,12.0,0.,12.0,0.,12.0
1981-08-30 09:29:51.650 ,6,1,0.,12.0,0.,12.0,0.,12.0,0.,12.0
1981-08-30 09:30:03.650 ,6,0,0.,12.0,0.,12.0,0.,12.0,0.,12.0
1981-08-30 09:30:15.650 ,6,0,0.,12.0,0.,12.0,0.,12.0,0.,12.0
1981-08-30 09:30:27.650 ,5,1,0.,12.0,0.,12.0,0.,12.0,0.,12.0
1981-08-30 09:30:39.650 ,5,1,0.,12.0,0.,12.0,0.,12.0,0.,12.0
1981-08-30 09:30:51.650 ,5,0,0.,12.0,0.,12.0,0.,12.0,0.,12.0
1981-08-30 09:31:03.650 ,5,0,0.,12.0,0.,12.0,0.,12.0,0.,12.0
1981-08-30 09:31:15.650 ,4,1,0.,12.0,0.,12.0,0.,12.0,0.,12.0
1981-08-30 09:31:27.650 ,4,1,0.,12.0,0.,12.0,0.,12.0,0.,12.0
1981-08-30 09:31:39.650 ,4,0,0.,12.0,0.,12.0,0.,12.0,0.,12.0
1981-08-30 09:31:51.650 ,4,0,0.,12.0,0.,12.0,0.,12.0,0.,12.0
1981-08-30 09:32:03.650 ,3,1,0.,12.0,0.,12.0,0.,12.0,0.,12.0
1981-08-30 09:32:15.650 ,3,1,0.,12.0,0.,12.0,0.,12.0,0.,12.0
1981-08-30 09:32:27.650 ,3,0,0.,12.0,0.,12.0,0.,12.0,0.,12.0
1981-08-30 09:32:39.650 ,3,0,0.,12.0,0.,12.0,0.,12.0,0.,12.0
1981-08-30 09:32:51.650 ,2,1,0.,12.0,0.,12.0,0.,12.0,0.,12.0
1981-08-30 09:33:03.650 ,2,1,0.,12.0,0.,12.0,0.,12.0,0.,12.0
1981-08-30 09:33:15.650 ,2,0,0.,12.0,0.,12.0,0.,12.0,0.,12.0
1981-08-30 09:33:27.650 ,2,0,0.,12.0,0.,12.0,0.,12.0,0.,12.0
1981-08-30 09:33:39.640 ,1,1,0.,12.0,0.,12.0,0.,12.0,0.,12.0
1981-08-30 09:33:51.640 ,1,1,0.,12.0,0.,12.0,0.,12.0,0.,12.0
1981-08-30 09:34:03.640 ,1,0,0.,12.0,0.,12.0,0.,12.0,0.,12.0
1981-08-30 09:34:15.640 ,1,0,0.,12.0,0.,12.0,0.,12.0,0.,12.0
1981-08-30 09:34:27.640 ,0,1,0.,12.0,0.,12.0,0.,12.0,0.,12.0
1981-08-30 09:34:39.640 ,0,1,0.,12.0,0.,12.0,0.,12.0,0.,12.0
1981-08-30 09:34:51.640 ,0,0,0.,12.0,0.,12.0,0.,12.0,0.,12.0
1981-08-30 09:35:03.640 ,0,0,0.,12.0,0.,12.0,0.,12.0,0.,12.0
1981-08-30 09:35:15.640 ,0,1,0.,12.0,0.,12.0,0.,12.0,0.,12.0
1981-08-30 09:35:27.640 ,0,1,0.,12.0,0.,12.0,0.,12.0,0.,12.0
1981-08-30 09:35:39.640 ,0,0,0.,12.0,0.,12.0,0.,12.0,0.,12.0
1981-08-30 09:35:51.640 ,0,0,0.,12.0,0.,12.0,0.,12.0,0.,12.0
1981-08-30 09:36:03.640 ,1,1,0.,12.0,0.,12.0,0.,12.0,0.,12.0
1981-08-30 09:36:15.640 ,1,1,0.,12.0,0.,12.0,0.,12.0,0.,12.0
1981-08-30 09:36:27.640 ,1,0,0.,12.0,0.,12.0,0.,12.0,0.,12.0
1981-08-30 09:36:39.640 ,1,0,0.,12.0,0.,12.0,0.,12.0,0.,12.0
1981-08-30 09:36:51.640 ,2,1,0.,12.0,0.,12.0,0.,12.0,0.,12.0
1981-08-30 09:37:03.640 ,2,1,0.,12.0,0.,12.0,0.,12.0,0.,12.0
1981-08-30 09:37:15.640 ,2,0,0.,12.0,0.,12.0,0.,12.0,0.,12.0
1981-08-30 09:37:27.640 ,2,0,0.,12.0,0.,12.0,0.,12.0,0.,12.0
1981-08-30 09:37:39.640 ,3,1,0.,12.0,0.,12.0,0.,12.0,0.,12.0
1981-08-30 09:37:51.640 ,3,1,0.,12.0,0.,12.0,0.,12.0,0.,12.0
1981-08-30 09:38:03.640 ,4,1,0.,12.0,0.,12.0,0.,12.0,0.,12.0
1981-08-30 09:38:15.640 ,4,1,0.,12.0,0.,12.0,0.,12.0,0.,12.0
1981-08-30 09:38:27.640 ,5,1,0.,12.0,0.,12.0,0.,12.0,0.,12.0
1981-08-30 09:38:39.640 ,5,1,0.,12.0,0.,12.0,0.,12.0,0.,12.0
1981-08-30 09:38:51.640 ,6,1,0.,12.0,0.,12.0,0.,12.0,0.,12.0
1981-08-30 09:39:03.640 ,6,1,0.,12.0,0.,12.0,0.,12.0,0.,12.0
1981-08-30 09:39:15.640 ,7,1,0.,12.0,0.,12.0,0.,12.0,0.,12.0
1981-08-30 09:39:27.640 ,7,1,0.,12.0,0.,12.0,0.,12.0,0.,12.0
1981-08-30 09:39:39.640 ,7,1,0.,12.0,0.,12.0,0.,12.0,0.,12.0
1981-08-30 09:39:51.640 ,7,1,0.,12.0,0.,12.0,0.,12.0,0.,12.0
1981-08-30 09:40:03.640 ,6,1,0.,12.0,0.,12.0,0.,12.0,0.,12.0
1981-08-30 09:40:15.640 ,6,1,0.,12.0,0.,12.0,0.,12.0,0.,12.0
1981-08-30 09:40:27.640 ,5,1,0.,12.0,0.,12.0,0.,12.0,0.,12.0
1981-08-30 09:40:39.640 ,5,1,0.,12.0,0.,12.0,0.,12.0,0.,12.0
1981-08-30 09:40:51.640 ,4,1,0.,12.0,0.,12.0,0.,12.0,0.,12.0
1981-08-30 09:41:03.640 ,4,1,0.,12.0,0.,12.0,0.,12.0,0.,12.0
1981-08-30 09:41:15.640 ,3,1,0.,12.0,0.,12.0,0.,12.0,0.,12.0
1981-08-30 09:41:27.640 ,3,1,0.,12.0,0.,12.0,0.,12.0,0.,12.0
1981-08-30 09:41:39.640 ,2,1,0.,12.0,0.,12.0,0.,12.0,0.,12.0
1981-08-30 09:41:51.640 ,2,1,0.,12.0,0.,12.0,0.,12.0,0.,12.0
1981-08-30 09:42:03.640 ,1,1,0.,12.0,0.,12.0,0.,12.0,0.,12.0
1981-08-30 09:42:15.640 ,1,1,0.,12.0,0.,12.0,0.,12.0,0.,12.0
1981-08-30 09:42:27.640 ,0,1,0.,12.0,0.,12.0,0.,12.0,0.,12.0
1981-08-30 09:42:39.640 ,0,1,0.,12.0,0.,12.0,0.,12.0,0.,12.0
1981-08-30 09:42:51.640 ,0,1,0.,12.0,0.,12.0,0.,12.0,0.,12.0
1981-08-30 09:43:03.640 ,0,1,0.,12.0,0.,12.0,0.,12.0,0.,12.0
1981-08-30 09:43:15.640 ,1,1,0.,12.0,0.,12.0,0.,12.0,0.,12.0
1981-08-30 09:43:27.640 ,1,1,0.,12.0,0.,12.0,0.,12.0,0.,12.0
1981-08-30 09:43:39.640 ,2,1,0.,12.0,0.,12.0,0.,12.0,0.,12.0
1981-08-30 09:43:51.640 ,2,1,0.,12.0,0.,12.0,0.,12.0,0.,12.0
1981-08-30 09:44:03.640 ,3,1,0.,12.0,0.,12.0,0.,12.0,0.,12.0
1981-08-30 09:44:15.640 ,3,1,0.,12.0,0.,12.0,0.,12.0,0.,12.0
1981-08-30 09:44:27.640 ,3,0,0.,12.0,0.,12.0,0.,12.0,0.,12.0
1981-08-30 09:44:39.640 ,3,0,0.,12.0,0.,12.0,0.,12.0,0.,12.0
1981-08-30 09:44:51.640 ,4,1,0.,12.0,0.,12.0,0.,12.0,0.,12.0
1981-08-30 09:45:03.640 ,4,1,0.,12.0,0.,12.0,0.,12.0,0.,12.0
1981-08-30 09:45:15.640 ,4,0,0.,12.0,0.,12.0,0.,12.0,0.,12.0
1981-08-30 09:45:27.640 ,4,0,0.,12.0,0.,12.0,0.,12.0,0.,12.0
1981-08-30 09:45:39.640 ,5,1,0.,12.0,0.,12.0,0.,12.0,0.,12.0
1981-08-30 09:45:51.640 ,5,1,0.,12.0,0.,12.0,0.,12.0,0.,12.0
1981-08-30 09:46:03.640 ,5,0,0.,12.0,0.,12.0,0.,12.0,0.,12.0
1981-08-30 09:46:15.640 ,5,0,0.,12.0,0.,12.0,0.,12.0,0.,12.0
1981-08-30 09:46:27.640 ,6,1,0.,12.0,0.,12.0,0.,12.0,0.,12.0
1981-08-30 09:46:39.640 ,6,1,0.,12.0,0.,12.0,0.,12.0,0.,12.0
1981-08-30 09:46:51.640 ,6,0,0.,12.0,0.,12.0,0.,12.0,0.,12.0
1981-08-30 09:47:03.640 ,6,0,0.,12.0,0.,12.0,0.,12.0,0.,12.0
1981-08-30 09:47:15.640 ,7,1,0.,12.0,0.,12.0,0.,12.0,0.,12.0
1981-08-30 09:47:27.640 ,7,1,0.,12.0,0.,12.0,0.,12.0,0.,12.0
1981-08-30 09:47:39.640 ,7,0,0.,12.0,0.,12.0,0.,12.0,0.,12.0
1981-08-30 09:47:51.640 ,7,0,0.,12.0,0.,12.0,0.,12.0,0.,12.0
1981-08-30 09:48:03.640 ,7,1,0.,12.0,0.,12.0,0.,12.0,0.,12.0
1981-08-30 09:48:15.640 ,7,1,0.,12.0,0.,12.0,0.,12.0,0.,12.0
1981-08-30 09:48:27.640 ,7,0,0.,12.0,0.,12.0,0.,12.0,0.,12.0
1981-08-30 09:48:39.640 ,7,0,0.,12.0,0.,12.0,0.,12.0,0.,12.0
1981-08-30 09:48:51.640 ,6,1,0.,12.0,0.,12.0,0.,12.0,0.,12.0
1981-08-30 09:49:03.640 ,6,1,0.,12.0,0.,12.0,0.,12.0,0.,12.0
1981-08-30 09:49:15.640 ,6,0,0.,12.0,0.,12.0,0.,12.0,0.,12.0
1981-08-30 09:49:27.640 ,6,0,0.,12.0,0.,12.0,0.,12.0,0.,12.0
1981-08-30 09:49:39.640 ,5,1,0.,12.0,0.,12.0,0.,12.0,0.,12.0
1981-08-30 09:49:51.640 ,5,1,0.,12.0,0.,12.0,0.,12.0,0.,12.0
1981-08-30 09:50:03.640 ,5,0,0.,12.0,0.,12.0,0.,12.0,0.,12.0
1981-08-30 09:50:15.640 ,5,0,0.,12.0,0.,12.0,0.,12.0,0.,12.0
1981-08-30 09:50:27.640 ,4,1,0.,12.0,0.,12.0,0.,12.0,0.,12.0
1981-08-30 09:50:39.640 ,4,1,0.,12.0,0.,12.0,0.,12.0,0.,12.0
1981-08-30 09:50:51.640 ,4,0,0.,12.0,0.,12.0,0.,12.0,0.,12.0
1981-08-30 09:51:03.640 ,4,0,0.,12.0,0.,12.0,0.,12.0,0.,12.0
1981-08-30 09:51:15.640 ,3,1,0.,12.0,0.,12.0,0.,12.0,0.,12.0
1981-08-30 09:51:27.640 ,3,1,0.,12.0,0.,12.0,0.,12.0,0.,12.0
1981-08-30 09:51:39.640 ,3,0,0.,12.0,0.,12.0,0.,12.0,0.,12.0
1981-08-30 09:51:51.640 ,3,0,0.,12.0,0.,12.0,0.,12.0,0.,12.0
1981-08-30 09:52:03.640 ,2,1,0.,12.0,0.,12.0,0.,12.0,0.,12.0
1981-08-30 09:52:15.640 ,2,1,0.,12.0,0.,12.0,0.,12.0,0.,12.0
1981-08-30 09:52:27.640 ,2,0,0.,12.0,0.,12.0,0.,12.0,0.,12.0
1981-08-30 09:52:39.640 ,2,0,0.,12.0,0.,12.0,0.,12.0,0.,12.0
1981-08-30 09:52:51.640 ,1,1,0.,12.0,0.,12.0,0.,12.0,0.,12.0
1981-08-30 09:53:03.640 ,1,1,0.,12.0,0.,12.0,0.,12.0,0.,12.0
1981-08-30 09:53:15.640 ,1,0,0.,12.0,0.,12.0,0.,12.0,0.,12.0
1981-08-30 09:53:27.640 ,1,0,0.,12.0,0.,12.0,0.,12.0,0.,12.0
1981-08-30 09:53:39.640 ,0,1,0.,12.0,0.,12.0,0.,12.0,0.,12.0
1981-08-30 09:53:51.640 ,0,1,0.,12.0,0.,12.0,0.,12.0,0.,12.0
1981-08-30 09:54:03.640 ,0,0,0.,12.0,0.,12.0,0.,12.0,0.,12.0
1981-08-30 09:54:15.640 ,0,0,0.,12.0,0.,12.0,0.,12.0,0.,12.0
1981-08-30 09:54:27.640 ,0,1,0.,12.0,0.,12.0,0.,12.0,0.,12.0
1981-08-30 09:54:39.640 ,0,1,0.,12.0,0.,12.0,0.,12.0,0.,12.0
1981-08-30 09:54:51.640 ,0,0,0.,12.0,0.,12.0,0.,12.0,0.,12.0
1981-08-30 09:55:03.640 ,0,0,0.,12.0,0.,12.0,0.,12.0,0.,12.0
1981-08-30 09:55:15.640 ,1,1,0.,12.0,0.,12.0,0.,12.0,0.,12.0
1981-08-30 09:55:27.640 ,1,1,0.,12.0,0.,12.0,0.,12.0,0.,12.0
1981-08-30 09:55:39.640 ,1,0,0.,12.0,0.,12.0,0.,12.0,0.,12.0
1981-08-30 09:55:51.640 ,1,0,0.,12.0,0.,12.0,0.,12.0,0.,12.0
1981-08-30 09:56:03.640 ,2,1,0.,12.0,0.,12.0,0.,12.0,0.,12.0
1981-08-30 09:56:15.640 ,2,1,0.,12.0,0.,12.0,0.,12.0,0.,12.0
1981-08-30 09:56:27.640 ,2,0,0.,12.0,0.,12.0,0.,12.0,0.,12.0
1981-08-30 09:56:39.640 ,2,0,0.,12.0,0.,12.0,0.,12.0,0.,12.0
1981-08-30 09:56:51.640 ,3,1,0.,12.0,0.,12.0,0.,12.0,0.,12.0
1981-08-30 09:57:03.640 ,3,1,0.,12.0,0.,12.0,0.,12.0,0.,12.0
1981-08-30 09:57:15.640 ,4,1,0.,12.0,0.,12.0,0.,12.0,0.,12.0
1981-08-30 09:57:27.640 ,4,1,0.,12.0,0.,12.0,0.,12.0,0.,12.0
1981-08-30 09:57:39.640 ,5,1,0.,12.0,0.,12.0,0.,12.0,0.,12.0
1981-08-30 09:57:51.640 ,5,1,0.,12.0,0.,12.0,0.,12.0,0.,12.0
1981-08-30 09:58:03.640 ,6,1,0.,12.0,0.,12.0,0.,12.0,0.,12.0
1981-08-30 09:58:15.640 ,6,1,0.,12.0,0.,12.0,0.,12.0,0.,12.0
1981-08-30 09:58:27.640 ,7,1,0.,12.0,0.,12.0,0.,12.0,0.,12.0
1981-08-30 09:58:39.640 ,7,1,0.,12.0,0.,12.0,0.,12.0,0.,12.0
1981-08-30 09:58:51.640 ,7,1,0.,12.0,0.,12.0,0.,12.0,0.,12.0
1981-08-30 09:59:03.640 ,7,1,0.,12.0,0.,12.0,0.,12.0,0.,12.0
1981-08-30 09:59:15.640 ,6,1,0.,12.0,0.,12.0,0.,12.0,0.,12.0
1981-08-30 09:59:27.640 ,6,1,0.,12.0,0.,12.0,0.,12.0,0.,12.0
1981-08-30 09:59:39.640 ,5,1,0.,12.0,0.,12.0,0.,12.0,0.,12.0
1981-08-30 09:59:51.640 ,5,1,0.,12.0,0.,12.0,0.,12.0,0.,12.0
1981-08-30 10:00:03.640 ,4,1,0.,12.0,0.,12.0,0.,12.0,0.,12.0
1981-08-30 10:00:15.640 ,4,1,0.,12.0,0.,12.0,0.,12.0,0.,12.0
1981-08-30 10:00:27.640 ,3,1,0.,12.0,0.,12.0,0.,12.0,0.,12.0
1981-08-30 10:00:39.640 ,3,1,0.,12.0,0.,12.0,0.,12.0,0.,12.0
1981-08-30 10:00:51.640 ,2,1,0.,12.0,0.,12.0,0.,12.0,0.,12.0
1981-08-30 10:01:03.640 ,2,1,0.,12.0,0.,12.0,0.,12.0,0.,12.0
1981-08-30 10:01:15.640 ,1,1,0.,12.0,0.,12.0,0.,12.0,0.,12.0
1981-08-30 10:01:27.640 ,1,1,0.,12.0,0.,12.0,0.,12.0,0.,12.0
1981-08-30 10:01:39.640 ,0,1,0.,12.0,0.,12.0,0.,12.0,0.,12.0
1981-08-30 10:01:51.640 ,0,1,0.,12.0,0.,12.0,0.,12.0,0.,12.0
1981-08-30 10:02:03.640 ,0,1,0.,12.0,0.,12.0,0.,12.0,0.,12.0
1981-08-30 10:02:15.640 ,0,1,0.,12.0,0.,12.0,0.,12.0,0.,12.0
1981-08-30 10:02:27.640 ,1,1,0.,12.0,0.,12.0,0.,12.0,0.,12.0
1981-08-30 10:02:39.640 ,1,1,0.,12.0,0.,12.0,0.,12.0,0.,12.0
1981-08-30 10:02:51.640 ,2,1,0.,12.0,0.,12.0,0.,12.0,0.,12.0
1981-08-30 10:03:03.640 ,2,1,0.,12.0,0.,12.0,0.,12.0,0.,12.0
1981-08-30 10:03:15.640 ,3,1,0.,12.0,0.,12.0,0.,12.0,0.,12.0
1981-08-30 10:03:27.640 ,3,1,0.,12.0,0.,12.0,0.,12.0,0.,12.0
1981-08-30 10:03:39.640 ,3,0,0.,12.0,0.,12.0,0.,12.0,0.,12.0
1981-08-30 10:03:51.640 ,3,0,0.,12.0,0.,12.0,0.,12.0,0.,12.0
1981-08-30 10:04:03.640 ,4,1,0.,12.0,0.,12.0,0.,12.0,0.,12.0
1981-08-30 10:04:15.640 ,4,1,0.,12.0,0.,12.0,0.,12.0,0.,12.0
1981-08-30 10:04:27.640 ,4,0,0.,12.0,0.,12.0,0.,12.0,0.,12.0
1981-08-30 10:04:39.640 ,4,0,0.,12.0,0.,12.0,0.,12.0,0.,12.0
1981-08-30 10:04:51.640 ,5,1,0.,12.0,0.,12.0,0.,12.0,0.,12.0
1981-08-30 10:05:03.640 ,5,1,0.,12.0,0.,12.0,0.,12.0,0.,12.0
1981-08-30 10:05:15.640 ,5,0,0.,12.0,0.,12.0,0.,12.0,0.,12.0
1981-08-30 10:05:27.640 ,5,0,0.,12.0,0.,12.0,0.,12.0,0.,12.0
1981-08-30 10:05:39.640 ,6,1,0.,12.0,0.,12.0,0.,12.0,0.,12.0
1981-08-30 10:05:51.640 ,6,1,0.,12.0,0.,12.0,0.,12.0,0.,12.0
1981-08-30 10:06:03.640 ,6,0,0.,12.0,0.,12.0,0.,12.0,0.,12.0
1981-08-30 10:06:15.640 ,6,0,0.,12.0,0.,12.0,0.,12.0,0.,12.0
1981-08-30 10:06:27.640 ,7,1,0.,12.0,0.,12.0,0.,12.0,0.,12.0
1981-08-30 10:06:39.640 ,7,1,0.,12.0,0.,12.0,0.,12.0,0.,12.0
1981-08-30 10:06:51.640 ,7,0,0.,12.0,0.,12.0,0.,12.0,0.,12.0
1981-08-30 10:07:03.640 ,7,0,0.,12.0,0.,12.0,0.,12.0,0.,12.0
1981-08-30 10:07:15.640 ,7,1,0.,12.0,0.,12.0,0.,12.0,0.,12.0
1981-08-30 10:07:27.640 ,7,1,0.,12.0,0.,12.0,0.,12.0,0.,12.0
1981-08-30 10:07:39.640 ,7,0,0.,12.0,0.,12.0,0.,12.0,0.,12.0
1981-08-30 10:07:51.640 ,7,0,0.,12.0,0.,12.0,0.,12.0,0.,12.0
1981-08-30 10:08:03.640 ,6,1,0.,12.0,0.,12.0,0.,12.0,0.,12.0
1981-08-30 10:08:15.640 ,6,1,0.,12.0,0.,12.0,0.,12.0,0.,12.0
1981-08-30 10:08:27.640 ,6,0,0.,12.0,0.,12.0,0.,12.0,0.,12.0
1981-08-30 10:08:39.640 ,6,0,0.,12.0,0.,12.0,0.,12.0,0.,12.0
1981-08-30 10:08:51.640 ,5,1,0.,12.0,0.,12.0,0.,12.0,0.,12.0
1981-08-30 10:09:03.640 ,5,1,0.,12.0,0.,12.0,0.,12.0,0.,12.0
1981-08-30 10:09:15.640 ,5,0,0.,12.0,0.,12.0,0.,12.0,0.,12.0
1981-08-30 10:09:27.640 ,5,0,0.,12.0,0.,12.0,0.,12.0,0.,12.0
1981-08-30 10:09:39.640 ,4,1,0.,12.0,0.,12.0,0.,12.0,0.,12.0
1981-08-30 10:09:51.640 ,4,1,0.,12.0,0.,12.0,0.,12.0,0.,12.0
1981-08-30 10:10:03.640 ,4,0,0.,12.0,0.,12.0,0.,12.0,0.,12.0
1981-08-30 10:10:15.640 ,4,0,0.,12.0,0.,12.0,0.,12.0,0.,12.0
1981-08-30 10:10:27.640 ,3,1,0.,12.0,0.,12.0,0.,12.0,0.,12.0
1981-08-30 10:10:39.640 ,3,1,0.,12.0,0.,12.0,0.,12.0,0.,12.0
1981-08-30 10:10:51.640 ,3,0,0.,12.0,0.,12.0,0.,12.0,0.,12.0
1981-08-30 10:11:03.640 ,3,0,0.,12.0,0.,12.0,0.,12.0,0.,12.0
1981-08-30 10:11:15.640 ,2,1,0.,12.0,0.,12.0,0.,12.0,0.,12.0
1981-08-30 10:11:27.640 ,2,1,0.,12.0,0.,12.0,0.,12.0,0.,12.0
1981-08-30 10:11:39.640 ,2,0,0.,12.0,0.,12.0,0.,12.0,0.,12.0
1981-08-30 10:11:51.640 ,2,0,0.,12.0,0.,12.0,0.,12.0,0.,12.0
1981-08-30 10:12:03.640 ,1,1,0.,12.0,0.,12.0,0.,12.0,0.,12.0
1981-08-30 10:12:15.640 ,1,1,0.,12.0,0.,12.0,0.,12.0,0.,12.0
1981-08-30 10:12:27.640 ,0,0,0.,12.0,0.,12.0,0.,12.0,0.,12.0
1981-08-30 10:12:39.640 ,0,0,0.,12.0,0.,12.0,0.,12.0,0.,12.0
1981-08-30 10:16:25.240 ,0,0,,0,,0,,0,,0
1981-08-30 10:16:37.240 ,0,0,,0,,0,,0,,0
1981-08-30 10:16:27.640 ,0,0,0.,12.0,0.,12.0,0.,12.0,0.,12.0
1981-08-30 10:16:39.640 ,0,0,0.,12.0,0.,12.0,0.,12.0,0.,12.0
1981-08-30 10:16:51.640 ,5,1,0.,12.0,0.,12.0,0.,12.0,0.,12.0
1981-08-30 10:17:03.640 ,5,1,0.,12.0,0.,12.0,0.,12.0,0.,12.0
1981-08-30 10:17:15.640 ,6,1,0.,12.0,0.,12.0,0.,12.0,0.,12.0
1981-08-30 10:17:27.640 ,6,1,0.,12.0,0.,12.0,0.,12.0,0.,12.0
1981-08-30 10:17:39.640 ,7,1,0.,12.0,0.,12.0,0.,12.0,0.,12.0
1981-08-30 10:17:51.640 ,7,1,0.,12.0,0.,12.0,0.,12.0,0.,12.0
1981-08-30 10:18:03.640 ,7,1,0.,12.0,0.,12.0,0.,12.0,0.,12.0
1981-08-30 10:18:15.640 ,7,1,0.,12.0,0.,12.0,0.,12.0,0.,12.0
1981-08-30 10:18:27.640 ,6,1,0.,12.0,0.,12.0,0.,12.0,0.,12.0
1981-08-30 10:18:39.640 ,6,1,0.,12.0,0.,12.0,0.,12.0,0.,12.0
1981-08-30 10:18:51.640 ,5,1,0.,12.0,0.,12.0,0.,12.0,0.,12.0
1981-08-30 10:19:03.640 ,5,1,0.,12.0,0.,12.0,0.,12.0,0.,12.0
1981-08-30 10:19:15.640 ,4,1,0.,12.0,0.,12.0,0.,12.0,0.,12.0
1981-08-30 10:19:27.640 ,4,1,0.,12.0,0.,12.0,0.,12.0,0.,12.0
1981-08-30 10:19:39.640 ,3,1,0.,12.0,0.,12.0,0.,12.0,0.,12.0
1981-08-30 10:19:51.640 ,3,1,0.,12.0,0.,12.0,0.,12.0,0.,12.0
1981-08-30 10:20:03.640 ,2,1,0.,12.0,0.,12.0,0.,12.0,0.,12.0
1981-08-30 10:20:15.640 ,2,1,0.,12.0,0.,12.0,0.,12.0,0.,12.0
1981-08-30 10:20:27.640 ,1,1,0.,12.0,0.,12.0,0.,12.0,0.,12.0
1981-08-30 10:20:39.640 ,1,1,0.,12.0,0.,12.0,0.,12.0,0.,12.0